Regional Weather Roundup
Issued by NWS

Home | Current Version | Previous Version | Graphics & Text | Print | Product List | Glossary On
Versions: 1 2 3 4 5 6 7 8 9 10 11 12 13 14 15 16 17 18 19 20 21 22 23 24 25 26 27 28 29 30 31 32 33 34 35 36 37 38 39 40 41 42 43 44 45 46 47 48 49 50
000
ASUS43 KIND 250509
RWRIN

WEATHER ROUNDUP FOR INDIANA
NATIONAL WEATHER SERVICE INDIANAPOLIS IN
1200 AM EST SAT FEB 25 2017

NOTE: "FAIR" INDICATES FEW OR NO CLOUDS BELOW 12,000 FEET WITH NO
SIGNIFICANT WEATHER AND/OR OBSTRUCTIONS TO VISIBILITY.

* - STATION DOES NOT REPORT WEATHER SUCH AS PRECIPITATION OR FOG.

+ - STATION NOT QUALITY CONTROLLED BY THE NATIONAL WEATHER SERVICE.
    USE DATA WITH CAUTION...ESPECIALLY DEWPOINT AND RELATIVE
    HUMIDITY OBSERVATIONS.

INZ001>003-010>013-019-020-250600-
NORTHWEST INDIANA

CITY           SKY/WX    TMP DP  RH WIND       PRES   REMARKS
GARY /AIRPORT/ CLOUDY    40  34  77 SW8       29.60R
KNOX *+        CLOUDY    41  21  45 W13       29.59S
LA PORTE +     PTCLDY    37  34  88 W7        29.58S
MICHIGAN CITY+ MOCLDY    34  34 100 CALM      29.58F
MONTICELLO +   DRIZZLE   42  36  80 W10G20    29.62S
RENSSELAER +   CLOUDY    41  36  81 W16G22    29.62R
VALPARAISO     MOCLDY    40  35  83 W17       29.60R

$$

LMZ046-743>745-250600-
SOUTHERN LAKE MICHIGAN

STATION/POSITION TIME  TEMP    WIND        PRES    WAVE
                       AIR SEA DIR/SP/G            HT
                 (UTC) (F)     (DEG/KT/KT) (MB)    (FT)
BURNS HARBOR     0440   38     270/  7/  8 1002.7R
MICHIGAN CITY    0440   35        CALM       N/A

$$

INZ004-005-014>016-021>024-250600-
NORTH CENTRAL INDIANA

CITY           SKY/WX    TMP DP  RH WIND       PRES   REMARKS
GOSHEN         MOCLDY    40  36  86 W13       29.56F
LOGANSPORT +   CLOUDY    41  36  81 W12       29.62S
PERU/GRISSOM   CLOUDY    42  40  89 W10       29.59F
ROCHESTER +    CLOUDY    43  36  75 W14G21    29.60F
SOUTH BEND     MOCLDY    36  35  96 W6        29.58S
WARSAW +       MOCLDY    39  34  81 W12       29.58F

$$

INZ006>009-017-018-025>027-250600-
NORTHEAST INDIANA

CITY           SKY/WX    TMP DP  RH WIND       PRES   REMARKS
ANGOLA *+      CLOUDY    41  39  93 W9        29.55R
AUBURN +       CLOUDY    45  37  76 W14G23    29.57R
FORT WAYNE     MOCLDY    43  36  76 W20G26    29.59R
HUNTINGTON +   CLOUDY    42  36  79 W6        29.58F
KENDALLVILLE + CLOUDY    42  40  91 W16G23    29.56S

$$

INZ028-029-035-036-043>045-051>053-250600-
WEST CENTRAL INDIANA

CITY           SKY/WX    TMP DP  RH WIND       PRES   REMARKS
LAFAYETTE      CLOUDY    42  37  82 W14G24    29.63S
TERRE HAUTE    CLEAR     43  32  65 W10       29.69S

$$

INZ030>032-037>040-046>048-054>057-064-065-250600-
CENTRAL INDIANA

CITY           SKY/WX    TMP DP  RH WIND       PRES   REMARKS
CP ATTERBURY + CLOUDY    46  37  71 W12G23    29.66R
FISHERS *+     CLOUDY    43  39  87 W9G20     29.63F
FRANKFORT +    CLOUDY    45  38  76 W22G28    29.65S
GREENWOOD *+   CLOUDY    46  35  63 W18G26    29.65S
INDIANAPOLIS   PTCLDY    43  34  70 W17G24    29.64F
-EAGLE CREEK   PTCLDY    44  33  65 W16G23    29.64R
KOKOMO +       CLOUDY    43  38  82 W12       29.61F
MARION +       CLOUDY    42  36  81 W13       29.62F FOG
MT COMFORT *+  CLOUDY    45  37  76 W20G26    29.63F
SHELBYVILLE    CLOUDY    49  38  65 W21G31    29.62F
ZIONSVILLE +   CLOUDY    43  37  79 W17       29.64S

$$

INZ033-034-041-042-049-050-058-059-250600-
EAST CENTRAL INDIANA

CITY           SKY/WX    TMP DP  RH WIND       PRES   REMARKS
MUNCIE         MOCLDY    45  38  76 W10G23    29.61R

$$

INZ060-061-067>069-081>083-085>088-250600-
SOUTHWEST INDIANA

CITY           SKY/WX    TMP DP  RH WIND       PRES   REMARKS
EVANSVILLE     PTCLDY    47  34  60 W10G18    29.75R
HUNTINGBURG *+ CLOUDY    50  42  74 NW20      29.71R
WASHINGTON +   MOCLDY    46  37  71 W7        29.71S

$$

INZ062-063-066-070>080-084-089>092-250600-
SOUTH CENTRAL AND SOUTHEAST INDIANA

CITY           SKY/WX    TMP DP  RH WIND       PRES   REMARKS
BEDFORD +      CLOUDY    48  41  76 W10G17    29.68R
BLOOMINGTON    CLEAR     45  34  65 W9        29.67S
MADISON *+     MOCLDY    52  37  58 W12G21    29.65S
NORTH VERNON + CLOUDY    52  43  71 W15       29.64F
SEYMOUR +      LGT RAIN  52  45  76 W7G17     29.66R

$$




USA.gov is the U.S. government's official web portal to all federal, state and local government web resources and services.